COSMOS 2545 [GLONASS-M] 1 45358U 20018A 21110.37896575 -.00000066 00000-0 00000-0 0 9994 2 45358 64.8948 17.9526 0008600 261.8301 277.6673 2.13102783 8510 FREGAT R/B 1 45359U 20018B 21109.92507161 -.00000068 00000-0 00000-0 0 9996 2 45359 64.8709 18.5743 0063010 137.0603 223.4628 2.07972370 8305